User: anonymous
Location: Pine Mountain Observatory
(43.7910°N, 120.9377°W)
Time: 00:02:49
(UTC-07:00)
Language:

Cosmos 1076 Rocket - Orbit

View from above orbital plane
View from above orbital plane
View from above satellite
View from above satellite

Ground track
Ground track

The orbit data is extracted from the following two-line orbital elements,

1 11267U 79011B   14245.70940260  .00000297  00000-0  29503-4 0  5031
2 11267 082.5238 110.7057 0017207 021.1107 040.4849 14.88184189923956
Epoch (UTC): 02 September 2014 17:01:32
Eccentricity: 0.0017207
inclination: 82.5238°
perigee height: 591 km
apogee height: 615 km
right ascension of ascending node: 110.7057°
argument of perigee: 21.1107°
revolutions per day: 14.88184189
mean anomaly at epoch: 40.4849°
orbit number at epoch: 92395

The dashed part of the orbit path shows where the satellite is in the earth's shadow,  

DLR